Regional Weather Roundup
Issued by NWS

Home | Current Version | Previous Version | Text Only | Print | Product List | Glossary On
Versions: 1 2 3 4 5 6 7 8 9 10 11 12 13 14 15 16 17 18 19 20 21 22 23 24 25 26 27 28 29 30 31 32 33 34 35 36 37 38 39 40 41 42 43 44 45 46 47 48 49 50
000
ASUS45 KABQ 241110
RWRNM
NEW MEXICO REGIONAL WEATHER ROUNDUP
NATIONAL WEATHER SERVICE ALBUQUERQUE NM
500 AM MDT SUN MAY 24 2015

NOTE: "FAIR" MEANS FEW OR NO CLOUDS BELOW 12,000 FEET AGL WITH NO
       SIGNIFICANT WEATHER OR OBSTRUCTIONS TO VISION.

      THIS PRODUCT IS RELEASED AS TWO VERSIONS.  ONE VERSION NEAR
      THE TOP OF THE HOUR CONTAINING PRELIMINARY DATA FROM ALBUQUERQUE
      AND OTHER STATIONS.  A FINAL VERSION WITH ADDITIONAL DATA IS
      ISSUED ABOUT 10 MINUTES AFTER THE HOUR.

NMZ501-503-504-510>518-241200-
NORTHWEST PLATEAU/NORTHCENTRAL MOUNTAINS

CITY           SKY/WX    TMP DP  RH WIND       PRES   REMARKS
FARMINGTON     LGT RAIN  45  42  89 CALM      29.98F
LOS ALAMOS     PTCLDY    41  32  70 CALM      30.04S
SANTA FE       CLEAR     43  33  68 N9        30.00S
TAOS           CLEAR     34  21  60 SE6       30.04S WCI  29
ANGEL FIRE     FAIR      28  26  92 CALM      30.07S

$$
NMZ402-403-502-505>509-241200-
WESTCENTRAL MOUNTAINS/SOUTHWEST MOUNTAINS

CITY           SKY/WX    TMP DP  RH WIND       PRES   REMARKS
GALLUP         CLOUDY    41  33  73 CALM      30.03S
GRANTS         PTCLDY    36  33  89 S3        30.04F
SILVER CITY    CLEAR     43  23  45 N8        30.04F

$$
NMZ407-409-411-412-241200-
SOUTHERN DESERTS

CITY           SKY/WX    TMP DP  RH WIND       PRES   REMARKS
LORDSBURG      FAIR      46  25  42 W5        30.00F
DEMING         CLEAR     49  25  39 W9        29.99F
LAS CRUCES     CLEAR     49  25  38 W9        29.99F
HOLLOMAN AFB   PTCLDY    52  27  39 E6        29.93S
ALAMOGORDO     CLEAR     50  23  34 S7        29.95S
T OR C         CLEAR     54  24  31 NW9       29.97S

$$
NMZ519>523-241200-
CENTRAL VALLEYS/CENTRAL HIGHLANDS

CITY           SKY/WX    TMP DP  RH WIND       PRES   REMARKS
ALBUQUERQUE    PTCLDY    51  36  56 CALM      30.00F
DOUBLE EAGLE   PTCLDY    43  37  77 NW5       30.02S
MORIARTY ARPT  FAIR      39  31  75 CALM      30.02S
CLINES CORNERS NOT AVBL
BELEN          FAIR      43  34  71 N3        30.00F
SOCORRO        FAIR      50  35  56 NW12G17   29.99S

$$
NMZ524>526-539-540-241200-
SOUTHCENTRAL MOUNTAINS

CITY           SKY/WX    TMP DP  RH WIND       PRES   REMARKS
RUIDOSO        CLEAR     46  23  39 W9        30.04F

$$
NMZ527>531-241200-
NORTHEAST HIGHLANDS/NORTHEAST PLAINS

CITY           SKY/WX    TMP DP  RH WIND       PRES   REMARKS
LAS VEGAS      CLEAR     41  26  55 NE5       30.00R
RATON          CLEAR     38  32  79 N5        29.96R WCI  34
CLAYTON        CLOUDY    54  51  90 S7        29.91F

$$
NMZ532>537-241200-
EASTCENTRAL PLAINS

CITY           SKY/WX    TMP DP  RH WIND       PRES   REMARKS
TUCUMCARI      FOG       54  53  97 N6        29.87S VSB 3/4
CANNON AFB     CLEAR     50  48  90 NW7       29.88F
CLOVIS AIRPORT CLEAR     48  45  87 N3        29.90S

$$
NMZ028-029-538-241200-
SOUTHEAST PLAINS

CITY           SKY/WX    TMP DP  RH WIND       PRES   REMARKS
ROSWELL        CLEAR     48  43  82 SW7       29.88F
ARTESIA        CLEAR     48  46  93 S5        29.91F
CARLSBAD       CLEAR     50  44  80 W7        29.88F
HOBBS          PTCLDY    54  54 100 SW10      29.89F


$$


USA.gov is the U.S. government's official web portal to all federal, state and local government web resources and services.